Time,TemperatureF,DewpointF,PressureIn,WindDirection,WindDirectionDegrees,WindSpeedMPH,WindSpeedGustMPH,Humidity,HourlyPrecipIn,Conditions,Clouds,dailyrainin,SoftwareType,DateUTC
2013-04-15 00:11:00,54.1,49.0,30.27,SE,131,1.0,1.0,83,0.00,,,0.00,weatherlink.com 1.10,2013-04-14 22:11:00,
2013-04-15 00:41:00,53.0,49.0,30.27,SSE,156,1.0,2.0,85,0.00,,,0.00,weatherlink.com 1.10,2013-04-14 22:41:00,
2013-04-15 01:11:00,56.0,50.0,30.26,WSW,239,3.0,4.0,79,0.00,,,0.00,weatherlink.com 1.10,2013-04-14 23:11:00,
2013-04-15 01:41:00,52.9,48.0,30.26,SE,146,1.0,2.0,83,0.00,,,0.00,weatherlink.com 1.10,2013-04-14 23:41:00,
2013-04-15 02:11:00,56.2,49.0,30.25,SW,224,2.0,3.0,78,0.00,,,0.00,weatherlink.com 1.10,2013-04-15 00:11:00,
2013-04-15 02:26:00,54.5,49.0,30.25,SW,225,0.0,2.0,81,0.00,,,0.00,weatherlink.com 1.10,2013-04-15 00:26:00,
2013-04-15 02:41:00,52.5,47.0,30.25,ENE,61,0.0,1.0,82,0.00,,,0.00,weatherlink.com 1.10,2013-04-15 00:41:00,
2013-04-15 03:27:00,51.4,47.0,30.24,WNW,293,0.0,0.0,86,0.00,,,0.00,weatherlink.com 1.10,2013-04-15 01:27:00,
2013-04-15 03:42:00,51.4,48.0,30.24,SSE,159,1.0,3.0,87,0.00,,,0.00,weatherlink.com 1.10,2013-04-15 01:42:00,
2013-04-15 03:57:00,50.6,48.0,30.25,SSW,193,0.0,3.0,89,0.00,,,0.00,weatherlink.com 1.10,2013-04-15 01:57:00,
2013-04-15 04:12:00,50.7,47.0,30.25,West,259,1.0,1.0,87,0.00,,,0.00,weatherlink.com 1.10,2013-04-15 02:12:00,
2013-04-15 04:27:00,50.3,47.0,30.25,SSW,197,0.0,0.0,87,0.00,,,0.00,weatherlink.com 1.10,2013-04-15 02:27:00,
2013-04-15 04:42:00,51.1,46.0,30.25,ENE,58,1.0,2.0,83,0.00,,,0.00,weatherlink.com 1.10,2013-04-15 02:42:00,
2013-04-15 04:57:00,50.0,46.0,30.25,ESE,117,1.0,3.0,86,0.00,,,0.00,weatherlink.com 1.10,2013-04-15 02:57:00,
2013-04-15 05:12:00,50.3,46.0,30.24,West,262,2.0,3.0,85,0.00,,,0.00,weatherlink.com 1.10,2013-04-15 03:12:00,
2013-04-15 05:27:00,51.5,48.0,30.24,West,269,1.0,3.0,86,0.00,,,0.00,weatherlink.com 1.10,2013-04-15 03:27:00,
2013-04-15 05:42:00,53.4,48.0,30.23,West,260,1.0,2.0,83,0.00,,,0.00,weatherlink.com 1.10,2013-04-15 03:42:00,
2013-04-15 05:57:00,50.7,46.0,30.23,ESE,109,2.0,2.0,84,0.00,,,0.00,weatherlink.com 1.10,2013-04-15 03:57:00,
2013-04-15 06:12:00,49.9,47.0,30.24,ESE,115,5.0,6.0,88,0.00,,,0.00,weatherlink.com 1.10,2013-04-15 04:12:00,
2013-04-15 06:27:00,53.0,48.0,30.24,South,172,0.0,4.0,84,0.00,,,0.00,weatherlink.com 1.10,2013-04-15 04:27:00,
2013-04-15 06:42:00,52.6,48.0,30.24,South,187,0.0,2.0,83,0.00,,,0.00,weatherlink.com 1.10,2013-04-15 04:42:00,
2013-04-15 06:57:00,50.6,45.0,30.24,East,92,0.0,2.0,82,0.00,,,0.00,weatherlink.com 1.10,2013-04-15 04:57:00,
2013-04-15 07:12:00,49.8,46.0,30.24,West,266,2.0,2.0,86,0.00,,,0.00,weatherlink.com 1.10,2013-04-15 05:12:00,
2013-04-15 07:27:00,49.7,46.0,30.24,NW,326,0.0,2.0,86,0.00,,,0.00,weatherlink.com 1.10,2013-04-15 05:27:00,
2013-04-15 07:42:00,51.3,47.0,30.24,ESE,103,2.0,3.0,84,0.00,,,0.00,weatherlink.com 1.10,2013-04-15 05:42:00,
2013-04-15 07:57:00,52.2,48.0,30.24,South,189,1.0,1.0,84,0.00,,,0.00,weatherlink.com 1.10,2013-04-15 05:57:00,
2013-04-15 08:12:00,52.5,48.0,30.25,WSW,237,2.0,2.0,85,0.00,,,0.00,weatherlink.com 1.10,2013-04-15 06:12:00,
2013-04-15 08:27:00,54.4,49.0,30.25,ENE,65,0.0,2.0,81,0.00,,,0.00,weatherlink.com 1.10,2013-04-15 06:27:00,
2013-04-15 08:42:00,55.6,50.0,30.25,WSW,239,1.0,2.0,80,0.00,,,0.00,weatherlink.com 1.10,2013-04-15 06:42:00,
2013-04-15 08:57:00,57.4,51.0,30.25,WNW,282,1.0,3.0,79,0.00,,,0.00,weatherlink.com 1.10,2013-04-15 06:57:00,
2013-04-15 09:42:00,63.8,53.0,30.25,West,270,1.0,7.0,68,0.00,,,0.00,weatherlink.com 1.10,2013-04-15 07:42:00,
2013-04-15 09:57:00,64.9,51.0,30.24,WSW,257,9.0,11.0,62,0.00,,,0.00,weatherlink.com 1.10,2013-04-15 07:57:00,
2013-04-15 10:28:00,66.2,50.0,30.25,WNW,288,8.0,12.0,56,0.00,,,0.00,weatherlink.com 1.10,2013-04-15 08:28:00,
2013-04-15 10:43:00,66.3,50.0,30.24,West,264,9.0,12.0,57,0.00,,,0.00,weatherlink.com 1.10,2013-04-15 08:43:00,
2013-04-15 10:58:00,67.1,48.0,30.24,West,269,9.0,14.0,51,0.00,,,0.00,weatherlink.com 1.10,2013-04-15 08:58:00,
2013-04-15 11:13:00,67.5,48.0,30.25,WSW,256,6.0,14.0,49,0.00,,,0.00,weatherlink.com 1.10,2013-04-15 09:13:00,
2013-04-15 11:28:00,67.6,48.0,30.26,West,266,6.0,12.0,49,0.00,,,0.00,weatherlink.com 1.10,2013-04-15 09:28:00,
2013-04-15 11:43:00,68.2,48.0,30.26,WSW,245,7.0,11.0,48,0.00,,,0.00,weatherlink.com 1.10,2013-04-15 09:43:00,
2013-04-15 11:58:00,68.5,47.0,30.26,SW,236,8.0,11.0,47,0.00,,,0.00,weatherlink.com 1.10,2013-04-15 09:58:00,
2013-04-15 12:13:00,68.6,46.0,30.25,West,274,4.0,12.0,44,0.00,,,0.00,weatherlink.com 1.10,2013-04-15 10:13:00,
2013-04-15 12:28:00,69.0,46.0,30.25,WSW,252,6.0,13.0,44,0.00,,,0.00,weatherlink.com 1.10,2013-04-15 10:28:00,
2013-04-15 12:43:00,69.4,43.0,30.24,WSW,243,9.0,13.0,38,0.00,,,0.00,weatherlink.com 1.10,2013-04-15 10:43:00,
2013-04-15 12:58:00,69.9,44.0,30.24,WSW,257,9.0,13.0,40,0.00,,,0.00,weatherlink.com 1.10,2013-04-15 10:58:00,
2013-04-15 13:13:00,70.3,45.0,30.24,WSW,253,13.0,14.0,40,0.00,,,0.00,weatherlink.com 1.10,2013-04-15 11:13:00,
2013-04-15 13:28:00,70.0,43.0,30.24,WNW,295,5.0,13.0,38,0.00,,,0.00,weatherlink.com 1.10,2013-04-15 11:28:00,
2013-04-15 13:43:00,71.2,46.0,30.23,West,280,3.0,9.0,40,0.00,,,0.00,weatherlink.com 1.10,2013-04-15 11:43:00,
2013-04-15 13:58:00,71.1,44.0,30.23,West,281,5.0,12.0,38,0.00,,,0.00,weatherlink.com 1.10,2013-04-15 11:58:00,
2013-04-15 14:12:00,70.8,44.0,30.23,SW,231,7.0,10.0,38,0.00,,,0.00,weatherlink.com 1.10,2013-04-15 12:12:00,
2013-04-15 14:27:00,71.3,44.0,30.22,NW,311,5.0,10.0,38,0.00,,,0.00,weatherlink.com 1.10,2013-04-15 12:27:00,
2013-04-15 14:42:00,71.4,44.0,30.22,WNW,288,6.0,13.0,38,0.00,,,0.00,weatherlink.com 1.10,2013-04-15 12:42:00,
2013-04-15 15:13:00,70.9,43.0,30.21,WNW,291,9.0,13.0,37,0.00,,,0.00,weatherlink.com 1.10,2013-04-15 13:13:00,
2013-04-15 15:28:00,71.1,44.0,30.21,WNW,293,2.0,11.0,38,0.00,,,0.00,weatherlink.com 1.10,2013-04-15 13:28:00,
2013-04-15 15:43:00,70.6,44.0,30.21,WSW,253,5.0,12.0,38,0.00,,,0.00,weatherlink.com 1.10,2013-04-15 13:43:00,
2013-04-15 15:58:00,70.4,44.0,30.21,WSW,258,8.0,10.0,39,0.00,,,0.00,weatherlink.com 1.10,2013-04-15 13:58:00,
2013-04-15 16:13:00,70.7,44.0,30.20,West,276,4.0,10.0,39,0.00,,,0.00,weatherlink.com 1.10,2013-04-15 14:13:00,
2013-04-15 16:27:00,70.5,44.0,30.20,West,278,9.0,10.0,39,0.00,,,0.00,weatherlink.com 1.10,2013-04-15 14:27:00,
2013-04-15 16:42:00,70.1,46.0,30.21,WNW,287,4.0,9.0,43,0.00,,,0.00,weatherlink.com 1.10,2013-04-15 14:42:00,
2013-04-15 16:57:00,70.3,48.0,30.20,WSW,245,6.0,8.0,45,0.00,,,0.00,weatherlink.com 1.10,2013-04-15 14:57:00,
2013-04-15 17:12:00,70.1,46.0,30.20,NW,314,3.0,8.0,43,0.00,,,0.00,weatherlink.com 1.10,2013-04-15 15:12:00,
2013-04-15 17:27:00,70.2,47.0,30.20,West,266,6.0,10.0,43,0.00,,,0.00,weatherlink.com 1.10,2013-04-15 15:27:00,
2013-04-15 17:43:00,70.1,47.0,30.19,West,271,3.0,9.0,44,0.00,,,0.00,weatherlink.com 1.10,2013-04-15 15:43:00,
2013-04-15 17:58:00,69.5,48.0,30.19,WNW,288,12.0,12.0,47,0.00,,,0.00,weatherlink.com 1.10,2013-04-15 15:58:00,
2013-04-15 18:13:00,68.9,49.0,30.19,West,270,6.0,9.0,49,0.00,,,0.00,weatherlink.com 1.10,2013-04-15 16:13:00,
2013-04-15 18:28:00,68.4,48.0,30.18,WNW,294,7.0,10.0,49,0.00,,,0.00,weatherlink.com 1.10,2013-04-15 16:28:00,
2013-04-15 18:58:00,66.4,49.0,30.18,West,274,5.0,11.0,54,0.00,,,0.00,weatherlink.com 1.10,2013-04-15 16:58:00,
2013-04-15 19:13:00,65.6,50.0,30.18,WNW,288,6.0,9.0,57,0.00,,,0.00,weatherlink.com 1.10,2013-04-15 17:13:00,
2013-04-15 19:28:00,65.3,51.0,30.18,West,277,6.0,9.0,60,0.00,,,0.00,weatherlink.com 1.10,2013-04-15 17:28:00,
2013-04-15 19:43:00,64.5,51.0,30.18,West,280,8.0,9.0,61,0.00,,,0.00,weatherlink.com 1.10,2013-04-15 17:43:00,
2013-04-15 19:58:00,63.7,51.0,30.18,West,278,9.0,11.0,63,0.00,,,0.00,weatherlink.com 1.10,2013-04-15 17:58:00,
2013-04-15 20:13:00,63.2,51.0,30.18,WSW,255,8.0,8.0,65,0.00,,,0.00,weatherlink.com 1.10,2013-04-15 18:13:00,
2013-04-15 20:28:00,62.6,51.0,30.18,WNW,290,4.0,9.0,67,0.00,,,0.00,weatherlink.com 1.10,2013-04-15 18:28:00,
2013-04-15 20:43:00,62.0,52.0,30.18,WNW,294,5.0,8.0,69,0.00,,,0.00,weatherlink.com 1.10,2013-04-15 18:43:00,
2013-04-15 20:58:00,61.6,52.0,30.18,West,281,2.0,7.0,70,0.00,,,0.00,weatherlink.com 1.10,2013-04-15 18:58:00,
2013-04-15 21:13:00,61.3,52.0,30.19,West,273,7.0,8.0,72,0.00,,,0.00,weatherlink.com 1.10,2013-04-15 19:13:00,
2013-04-15 21:28:00,61.2,53.0,30.19,West,269,1.0,7.0,74,0.00,,,0.00,weatherlink.com 1.10,2013-04-15 19:28:00,
2013-04-15 21:43:00,60.9,53.0,30.19,West,274,5.0,7.0,76,0.00,,,0.00,weatherlink.com 1.10,2013-04-15 19:43:00,
2013-04-15 21:58:00,60.6,54.0,30.19,SW,236,3.0,7.0,78,0.00,,,0.00,weatherlink.com 1.10,2013-04-15 19:58:00,
2013-04-15 22:13:00,59.9,53.0,30.20,WSW,240,2.0,5.0,77,0.00,,,0.00,weatherlink.com 1.10,2013-04-15 20:13:00,
2013-04-15 22:28:00,59.2,53.0,30.20,SW,224,1.0,2.0,79,0.00,,,0.00,weatherlink.com 1.10,2013-04-15 20:28:00,
2013-04-15 22:43:00,58.3,52.0,30.21,SSW,205,3.0,3.0,80,0.00,,,0.00,weatherlink.com 1.10,2013-04-15 20:43:00,
2013-04-15 22:58:00,58.7,53.0,30.21,West,273,3.0,3.0,81,0.00,,,0.00,weatherlink.com 1.10,2013-04-15 20:58:00,
2013-04-15 23:13:00,58.9,53.0,30.20,WNW,294,4.0,4.0,82,0.00,,,0.00,weatherlink.com 1.10,2013-04-15 21:13:00,
2013-04-15 23:28:00,58.2,53.0,30.20,WNW,290,4.0,5.0,82,0.00,,,0.00,weatherlink.com 1.10,2013-04-15 21:28:00,
2013-04-15 23:43:00,58.4,54.0,30.20,West,267,3.0,6.0,84,0.00,,,0.00,weatherlink.com 1.10,2013-04-15 21:43:00,
2013-04-15 23:58:00,58.7,54.0,30.20,WNW,289,0.0,4.0,83,0.00,,,0.00,weatherlink.com 1.10,2013-04-15 21:58:00,